El Paso, TX

11:25 AM MDT on May 28, 2017 (GMT -0600)
El Paso International

Weather History for KELP - February, 2012

Change the Weather History Date:

Tuesday, February 28, 2012

  Actual Average Record
Temperature  
Mean Temperature 60 °F 53 °F  
Max Temperature 70 °F 66 °F 83 °F (2006)
Min Temperature 50 °F 40 °F 21 °F (1922)
Degree Days  
Heating Degree Days 5 12  
Month to date heating degree days 401 418  
Since 1 July heating degree days 2009 2103  
Cooling Degree Days 0 0  
Month to date cooling degree days 0 0  
Year to date cooling degree days 0 0  
Growing Degree Days 10 (Base 50)    
Moisture  
Dew Point 20 °F    
Average Humidity 27    
Maximum Humidity 44    
Minimum Humidity 10    
Precipitation  
Precipitation 0.00 in 0.01 in 0.54 in (1942)
Month to date precipitation 0.02 0.46  
Year to date precipitation 0.68 0.86  
Snow  
Snow 0.00 in - - ()
Month to date snowfall 0.0  
Since 1 July snowfall 3.2  
Snow Depth 0.00 in    
Sea Level Pressure  
Sea Level Pressure 29.88 in    
Wind  
Wind Speed 16 mph (West)    
Max Wind Speed 39 mph    
Max Gust Speed 51 mph    
Visibility 8 miles    
Events      
T = Trace of Precipitation, MM = Missing Value Source: NWS Daily Summary

Daily Weather History Graph

Daily Weather History Graph

Search for Another Location

Airport or City:

Trip Planner

Search our weather history database for the weather conditions in past years. The results will help you decide how hot, cold, wet, or windy it might be!

Date:

Astronomy

Feb. 28, 2012 Rise Set
Actual Time 6:34 AM MST 6:02 PM MST
Civil Twilight 6:09 AM MST 6:26 PM MST
Nautical Twilight 5:41 AM MST 6:55 PM MST
Astronomical Twilight 5:13 AM MST 7:23 PM MST
Moon 10:10 AM MST No Moon Set
Length of Visible Light 12h 17m
Length of Day
11h 28m
Waxing Crescent, 38% of the Moon is Illuminated
Feb 28
Waxing Crescent
Feb 29
First Quarter
Mar 8
Full
Mar 14
Last Quarter
Mar 22
New

Hourly Weather History & Observations

Time (MST) Temp. Dew Point Humidity Pressure Visibility Wind Dir Wind Speed Gust Speed Precip Events Conditions
12:51 AM 51.1 °F 27.0 °F 39% 29.77 in 10.0 mi SE 8.1 mph - N/A   Clear
1:51 AM 53.1 °F 26.1 °F 35% 29.75 in 10.0 mi SSE 9.2 mph - N/A   Clear
2:51 AM 57.0 °F 26.1 °F 30% 29.73 in 10.0 mi South 9.2 mph - N/A   Clear
3:51 AM 60.1 °F 27.0 °F 28% 29.72 in 10.0 mi SW 19.6 mph 26.5 mph N/A   Clear
4:51 AM 57.9 °F 27.0 °F 31% 29.77 in 10.0 mi WSW 12.7 mph - N/A   Clear
5:51 AM 57.0 °F 28.0 °F 33% 29.79 in 10.0 mi WSW 13.8 mph - N/A   Clear
6:51 AM 55.9 °F 28.0 °F 34% 29.83 in 10.0 mi West 16.1 mph - N/A   Partly Cloudy
7:51 AM 57.0 °F 28.9 °F 34% 29.84 in 10.0 mi West 12.7 mph 21.9 mph N/A   Partly Cloudy
8:51 AM 59.0 °F 30.0 °F 33% 29.87 in 10.0 mi West 16.1 mph 24.2 mph N/A   Partly Cloudy
9:51 AM 60.1 °F 30.0 °F 32% 29.87 in 4.0 mi WNW 17.3 mph 31.1 mph N/A   Widespread Dust
10:51 AM 64.0 °F 26.1 °F 24% 29.88 in 5.0 mi WSW 25.3 mph 38.0 mph N/A   Widespread Dust
11:47 AM 66.2 °F 21.2 °F 18% 29.98 in 2.5 mi WSW 31.1 mph 40.3 mph N/A   Widespread Dust
11:51 AM 68.0 °F 19.4 °F 16% 29.98 in 2.5 mi WSW 36.8 mph 44.9 mph N/A   Widespread Dust
12:06 PM 66.2 °F 15.8 °F 14% 29.98 in 1.5 mi West 38.0 mph 50.6 mph N/A   Widespread Dust
12:37 PM 66.2 °F 15.8 °F 14% 29.97 in 1.0 mi West 25.3 mph 41.4 mph N/A   Widespread Dust
12:51 PM 68.0 °F 12.9 °F 12% 29.83 in 1.0 mi WSW 31.1 mph 48.3 mph N/A   Widespread Dust
1:11 PM 68.0 °F 14.0 °F 12% 29.97 in 2.0 mi West 25.3 mph 34.5 mph N/A   Widespread Dust
1:37 PM 68.0 °F 8.6 °F 10% 29.96 in 3.0 mi West 28.8 mph 34.5 mph N/A   Widespread Dust
1:51 PM 68.0 °F 10.0 °F 11% 29.83 in 5.0 mi West 21.9 mph 33.4 mph N/A   Widespread Dust
2:51 PM 69.1 °F 10.9 °F 11% 29.81 in 10.0 mi WSW 29.9 mph 39.1 mph N/A   Clear
3:51 PM 68.0 °F 14.0 °F 12% 29.83 in 10.0 mi West 18.4 mph 31.1 mph N/A   Clear
4:51 PM 64.9 °F 18.0 °F 16% 29.85 in 10.0 mi West 19.6 mph 25.3 mph N/A   Clear
5:51 PM 61.0 °F 18.0 °F 19% 29.88 in 10.0 mi WNW 17.3 mph 25.3 mph N/A   Clear
6:51 PM 57.0 °F 19.0 °F 23% 29.92 in 10.0 mi NW 15.0 mph - N/A   Clear
7:51 PM 54.0 °F 19.0 °F 25% 29.96 in 10.0 mi North 8.1 mph - N/A   Clear
8:51 PM 53.1 °F 17.1 °F 24% 29.97 in 10.0 mi WNW 6.9 mph - N/A   Clear
9:51 PM 52.0 °F 16.0 °F 24% 29.99 in 10.0 mi Variable 4.6 mph - N/A   Clear
10:51 PM 52.0 °F 17.1 °F 25% 29.98 in 10.0 mi NW 5.8 mph - N/A   Clear
11:51 PM 51.1 °F 17.1 °F 26% 29.97 in 10.0 mi WNW 5.8 mph - N/A   Clear